Change the Weather History Date:

Wednesday, August 8, 2012

  Actual Average Record
Temperature  
Mean Temperature 102 °F 92 °F  
Max Temperature 115 °F 107 °F 121 °F (1928)
Min Temperature 88 °F 78 °F 60 °F (1957)
Degree Days  
Heating Degree Days 0 0  
Month to date heating degree days 0 0  
Since 1 June heating degree days 0 0  
Since 1 July heating degree days 0 0  
Cooling Degree Days 37 27  
Month to date cooling degree days 249 221  
Year to date cooling degree days 2728 2473  
Since 1 June cooling degree days 1789 1714  
Growing Degree Days 51 (Base 50)    
Moisture  
Dew Point 55 °F    
Average Humidity 27    
Maximum Humidity 40    
Minimum Humidity 14    
Precipitation  
Precipitation 0.00 in 0.01 in 0.14 in (1983)
Month to date precipitation 0.00 0.09  
Year to date precipitation 1.11 3.28  
Since 1 July precipitation 0.32 0.34  
Snow  
Snow 0.00 in - - ()
Month to date snowfall 0.0  
Year to date snowfall 0.0  
Since 1 July snowfall 0.0  
Snow Depth 0.00 in    
Sea Level Pressure  
Sea Level Pressure 29.76 in    
Wind  
Wind Speed 5 mph (East)    
Max Wind Speed 15 mph    
Max Gust Speed 20 mph    
Visibility 10 miles    
Events      
T = Trace of Precipitation, MM = Missing Value Source: NWS Daily Summary

Daily Weather History Graph

Daily Weather History Graph

Search for Another Location

Airport or City:

Trip Planner

Search our weather history database for the weather conditions in past years. The results will help you decide how hot, cold, wet, or windy it might be!

Date:

Astronomy

Aug. 08, 2012 Rise Set
Actual Time 6:03 AM PDT 7:39 PM PDT
Civil Twilight 5:36 AM PDT 8:06 PM PDT
Nautical Twilight 5:04 AM PDT 8:38 PM PDT
Astronomical Twilight 4:30 AM PDT 9:11 PM PDT
Moon 11:20 PM PDT (8/8) 12:29 PM PDT (8/8)
Length of Visible Light 14h 29m
Length of Day
13h 36m
Waning Gibbous, 59% of the Moon is Illuminated
Aug 8
Waning Gibbous
Aug 9
Last Quarter
Aug 17
New
Aug 24
First Quarter
Aug 31
Full

Hourly Weather History & Observations

Time (PDT) Temp. Heat Index Dew Point Humidity Pressure Visibility Wind Dir Wind Speed Gust Speed Precip Events Conditions
12:53 AM 95.0 °F 93.0 °F 55.0 °F 26% 29.76 in 10.0 mi Calm Calm - N/A   Clear
1:53 AM 93.0 °F 91.1 °F 55.0 °F 28% 29.76 in 10.0 mi Calm Calm - N/A   Clear
2:53 AM 91.9 °F 90.6 °F 57.0 °F 31% 29.76 in 10.0 mi Calm Calm - N/A   Clear
3:53 AM 91.9 °F 90.3 °F 55.9 °F 30% 29.76 in 10.0 mi Calm Calm - N/A   Clear
4:53 AM 91.9 °F 90.8 °F 57.9 °F 32% 29.77 in 10.0 mi Calm Calm - N/A   Clear
5:53 AM 88.0 °F 87.6 °F 60.1 °F 39% 29.79 in 10.0 mi Calm Calm - N/A   Clear
6:53 AM 93.0 °F - 51.1 °F 24% 29.80 in 10.0 mi NNW 4.6 mph - N/A   Clear
7:53 AM 98.1 °F - 48.0 °F 18% 29.81 in 10.0 mi NNW 6.9 mph - N/A   Clear
8:53 AM 100.0 °F 98.8 °F 55.9 °F 23% 29.81 in 10.0 mi Calm Calm - N/A   Clear
9:53 AM 102.9 °F 101.4 °F 54.0 °F 20% 29.82 in 10.0 mi SE 10.4 mph - N/A   Partly Cloudy
10:53 AM 102.9 °F 103.0 °F 57.9 °F 23% 29.82 in 10.0 mi East 9.2 mph - N/A   Clear
11:53 AM 106.0 °F 105.8 °F 57.0 °F 20% 29.81 in 10.0 mi ESE 9.2 mph - N/A   Clear
12:53 PM 109.0 °F 108.1 °F 55.9 °F 17% 29.78 in 10.0 mi East 10.4 mph - N/A   Scattered Clouds
1:53 PM 109.9 °F 109.4 °F 55.9 °F 17% 29.76 in 10.0 mi Variable 4.6 mph - N/A   Clear
2:53 PM 113.0 °F 112.0 °F 55.0 °F 15% 29.73 in 10.0 mi ESE 4.6 mph - N/A   Scattered Clouds
3:53 PM 114.1 °F 112.6 °F 54.0 °F 14% 29.71 in 10.0 mi SE 9.2 mph - N/A   Clear
4:53 PM 114.1 °F 112.6 °F 54.0 °F 14% 29.70 in 10.0 mi SE 6.9 mph - N/A   Clear
5:53 PM 113.0 °F 111.1 °F 54.0 °F 14% 29.69 in 10.0 mi East 8.1 mph - N/A   Clear
6:53 PM 109.9 °F 110.2 °F 57.0 °F 18% 29.70 in 10.0 mi East 8.1 mph - N/A   Clear
7:53 PM 107.1 °F 105.4 °F 54.0 °F 17% 29.71 in 10.0 mi East 4.6 mph - N/A   Clear
8:53 PM 106.0 °F 103.9 °F 53.1 °F 17% 29.72 in 10.0 mi Calm Calm - N/A   Clear
9:53 PM 104.0 °F 102.9 °F 55.0 °F 20% 29.73 in 10.0 mi NW 4.6 mph - N/A   Clear
10:53 PM 102.9 °F - 52.0 °F 18% 29.74 in 10.0 mi NW 9.2 mph - N/A   Clear
11:53 PM 98.1 °F 97.2 °F 57.9 °F 26% 29.75 in 10.0 mi SSW 3.5 mph - N/A   Clear